D2913 Weather Reports


Display with metric or nautical units.
time (UTC)temp
F
wind
direction
speed
MPH
gust
MPH
rain 1hr
in
rain 24hr
in
rain mn
in
humidity
%
barometer
mb
20260504182017 67 0 0.0 0.0 0.00 0.00 0.00 82 1011.7
20260504181517 68 0 0.0 0.0 0.00 0.00 0.00 79 1011.4
20260504181016 69 0 0.0 0.0 0.00 0.00 0.00 79 1011.4
20260504180516 69 0 0.0 0.0 0.00 0.00 0.00 78 1011.3
20260504180017 69 0 0.0 0.0 0.00 0.00 0.00 78 1011.4
20260504175516 69 0 0.0 0.0 0.00 0.00 0.00 78 1011.4
20260504175016 69 0 0.0 0.0 0.00 0.00 0.00 78 1011.3
20260504174516 69 0 0.0 0.0 0.00 0.00 0.00 78 1011.4
20260504174016 70 0 0.0 0.0 0.00 0.00 0.00 78 1011.4
20260504173516 70 0 0.0 0.0 0.00 0.00 0.00 77 1011.4
20260504173017 71 0 0.0 0.0 0.00 0.00 0.00 77 1011.6
20260504172545 71 0 0.0 0.0 0.00 0.00 0.00 77 1011.6
20260504172017 71 0 0.0 0.0 0.00 0.00 0.00 77 1011.6
20260504151017 73 0 0.0 0.0 0.00 0.00 0.00 73 1011.9
20260504150516 74 0 0.0 0.0 0.00 0.00 0.00 73 1012.0
20260504141017 73 0 0.0 0.0 0.00 0.00 0.00 74 1012.3
20260504140516 74 0 0.0 0.0 0.00 0.00 0.00 73 1012.4
20260504130516 74 0 0.0 0.0 0.00 0.00 0.00 74 1012.9
20260504100517 69 0 0.0 0.0 0.00 0.00 0.00 76 1013.9
20260504081016 67 0 0.0 0.0 0.00 0.00 0.00 79 1014.7
20260504080517 66 0 0.0 0.0 0.00 0.00 0.00 78 1014.6
20260504050536 51 0 0.0 0.0 0.00 0.00 0.00 91 1012.7
20260504050017 51 0 0.0 0.0 0.00 0.00 0.00 91 1012.6
20260504045516 50 0 0.0 0.0 0.00 0.00 0.00 91 1012.7
20260504045017 50 0 0.0 0.0 0.00 0.00 0.00 91 1012.8
20260504044517 50 0 0.0 0.0 0.00 0.00 0.00 91 1012.8
20260504044016 50 0 0.0 0.0 0.00 0.00 0.00 91 1012.8
20260504043517 50 0 0.0 0.0 0.00 0.00 0.00 91 1012.8
20260504043016 50 0 0.0 0.0 0.00 0.00 0.00 91 1012.6
20260504042516 50 0 0.0 0.0 0.00 0.00 0.00 91 1012.8
20260504042016 50 0 0.0 0.0 0.00 0.00 0.00 91 1012.7
20260504041516 50 0 0.0 0.0 0.00 0.00 0.00 91 1012.7
20260504041043 50 0 0.0 0.0 0.00 0.00 0.00 91 1012.8
20260504040016 51 0 0.0 0.0 0.00 0.00 0.00 91 1012.9
20260504035517 51 0 0.0 0.0 0.00 0.00 0.00 91 1012.9
20260504035016 51 0 0.0 0.0 0.00 0.00 0.00 91 1012.9
20260504034517 51 0 0.0 0.0 0.00 0.00 0.00 91 1012.9
20260504034017 51 0 0.0 0.0 0.00 0.00 0.00 91 1013.1
20260504033517 51 0 0.0 0.0 0.00 0.00 0.00 91 1013.0
20260504033016 52 0 0.0 0.0 0.00 0.00 0.00 91 1013.0
20260504032517 52 0 0.0 0.0 0.00 0.00 0.00 91 1013.0
20260504032016 52 0 0.0 0.0 0.00 0.00 0.00 91 1013.0
20260504031519 52 0 0.0 0.0 0.00 0.00 0.00 91 1013.1
20260504030516 52 0 0.0 0.0 0.00 0.00 0.00 90 1013.2
20260504025516 53 0 0.0 0.0 0.00 0.00 0.00 90 1013.3
20260504025017 53 0 0.0 0.0 0.00 0.00 0.00 90 1013.3
20260504024516 52 0 0.0 0.0 0.00 0.00 0.00 90 1013.3
20260504024017 53 0 0.0 0.0 0.00 0.00 0.00 90 1013.4
20260504023517 53 0 0.0 0.0 0.00 0.00 0.00 90 1013.5
20260504023016 53 0 0.0 0.0 0.00 0.00 0.00 89 1013.5
20260504022516 53 0 0.0 0.0 0.00 0.00 0.00 89 1013.4
20260504022017 53 0 0.0 0.0 0.00 0.00 0.00 89 1013.4
20260504021517 53 0 0.0 0.0 0.00 0.00 0.00 89 1013.4
20260504020516 53 0 0.0 0.0 0.00 0.00 0.00 89 1013.4
20260504020017 53 0 0.0 0.0 0.00 0.00 0.00 89 1013.4
20260504015516 53 0 0.0 0.0 0.00 0.00 0.00 89 1013.5
20260504015016 53 0 0.0 0.0 0.00 0.00 0.00 89 1013.6
20260504014517 53 0 0.0 0.0 0.00 0.00 0.00 89 1013.6
20260504014017 53 0 0.0 0.0 0.00 0.00 0.00 89 1013.6
20260504013516 53 0 0.0 0.0 0.00 0.00 0.00 89 1013.6
20260504013016 53 0 0.0 0.0 0.00 0.00 0.00 89 1013.9
20260504012535 53 0 0.0 0.0 0.00 0.00 0.00 89 1013.7
20260504012017 53 0 0.0 0.0 0.00 0.00 0.00 90 1013.5
20260504011016 53 0 0.0 0.0 0.00 0.00 0.00 89 1013.5
20260504010516 53 0 0.0 0.0 0.00 0.00 0.00 89 1013.6
20260504010017 53 0 0.0 0.0 0.00 0.00 0.00 89 1013.5
20260504005516 53 0 0.0 0.0 0.00 0.00 0.00 88 1013.6
20260504005017 54 0 0.0 0.0 0.00 0.00 0.00 88 1013.9
20260504004516 54 0 0.0 0.0 0.00 0.00 0.00 87 1013.7
20260504004016 55 0 0.0 0.0 0.00 0.00 0.00 87 1013.9
20260504003517 55 0 0.0 0.0 0.00 0.00 0.00 87 1013.9
20260504003016 55 0 0.0 0.0 0.00 0.00 0.00 87 1013.7
20260504002517 55 0 0.0 0.0 0.00 0.00 0.00 87 1014.0
20260504002016 55 0 0.0 0.0 0.00 0.00 0.00 87 1014.2
20260504001516 55 0 0.0 0.0 0.00 0.00 0.00 86 1014.3
20260504000517 56 0 0.0 0.0 0.00 0.00 0.00 86 1014.4
20260504000017 56 0 0.0 0.0 0.00 0.00 0.00 86 1014.3
20260503235516 56 0 0.0 0.0 0.00 0.00 0.00 86 1014.2
20260503235017 56 0 0.0 0.0 0.00 0.00 0.00 87 1014.2
20260503234516 56 0 0.0 0.0 0.00 0.00 0.00 86 1014.3
20260503233516 56 0 0.0 0.0 0.00 0.00 0.00 86 1014.4
20260503233016 56 0 0.0 0.0 0.00 0.00 0.00 86 1014.5
20260503232518 57 0 0.0 0.0 0.00 0.00 0.00 86 1014.5
20260503232016 57 0 0.0 0.0 0.00 0.00 0.00 86 1014.4
20260503231516 57 0 0.0 0.0 0.00 0.00 0.00 85 1014.3
20260503231017 57 0 0.0 0.0 0.00 0.00 0.00 85 1014.4
20260503230517 57 0 0.0 0.0 0.00 0.00 0.00 85 1014.3
20260503225016 57 0 0.0 0.0 0.00 0.00 0.00 86 1014.0
20260503224516 57 0 0.0 0.0 0.00 0.00 0.00 86 1014.0
20260503223516 58 0 0.0 0.0 0.00 0.00 0.00 86 1014.0
20260503223017 58 0 0.0 0.0 0.00 0.00 0.00 85 1014.0
20260503222016 58 0 0.0 0.0 0.00 0.00 0.00 85 1014.0
20260503221516 58 0 0.0 0.0 0.00 0.00 0.00 85 1013.9
20260503221017 58 0 0.0 0.0 0.00 0.00 0.00 85 1013.9
20260503220516 58 0 0.0 0.0 0.00 0.00 0.00 85 1013.9
20260503215016 59 0 0.0 0.0 0.00 0.00 0.00 84 1013.9
20260503214516 59 0 0.0 0.0 0.00 0.00 0.00 84 1013.7
20260503214016 59 0 0.0 0.0 0.00 0.00 0.00 84 1013.6
20260503212516 59 0 0.0 0.0 0.00 0.00 0.00 83 1013.6
20260503212016 59 0 0.0 0.0 0.00 0.00 0.00 83 1013.4
20260503211516 60 0 0.0 0.0 0.00 0.00 0.00 83 1013.5
20260503211016 60 0 0.0 0.0 0.00 0.00 0.00 83 1013.5
20260503210517 60 0 0.0 0.0 0.00 0.00 0.00 82 1013.5
20260503210016 61 0 0.0 0.0 0.00 0.00 0.00 82 1013.4
20260503205517 61 0 0.0 0.0 0.00 0.00 0.00 82 1013.5
20260503205016 61 0 0.0 0.0 0.00 0.00 0.00 82 1013.4
20260503204517 62 0 0.0 0.0 0.00 0.00 0.00 82 1013.3
20260503203517 62 0 0.0 0.0 0.00 0.00 0.00 82 1013.2
20260503202516 62 0 0.0 0.0 0.00 0.00 0.00 81 1013.2
20260503202016 63 0 0.0 0.0 0.00 0.00 0.00 81 1013.2
20260503201016 63 0 0.0 0.0 0.00 0.00 0.00 81 1013.2
20260503200516 62 0 0.0 0.0 0.00 0.00 0.00 81 1013.1
20260503200017 62 0 0.0 0.0 0.00 0.00 0.00 81 1013.1
20260503195516 62 0 0.0 0.0 0.00 0.00 0.00 82 1013.0
20260503195017 62 0 0.0 0.0 0.00 0.00 0.00 82 1012.9
20260503194516 63 0 0.0 0.0 0.00 0.00 0.00 82 1013.0
20260503193516 63 0 0.0 0.0 0.00 0.00 0.00 82 1012.6
20260503193017 63 0 0.0 0.0 0.00 0.00 0.00 82 1012.5
20260503192516 63 0 0.0 0.0 0.00 0.00 0.00 82 1012.5
20260503192016 64 0 0.0 0.0 0.00 0.00 0.00 81 1012.6
20260503191517 64 0 0.0 0.0 0.00 0.00 0.00 81 1012.5
20260503191017 65 0 0.0 0.0 0.00 0.00 0.00 81 1012.7
20260503190516 66 0 0.0 0.0 0.00 0.00 0.00 79 1012.7
20260503185516 67 0 0.0 0.0 0.00 0.00 0.00 78 1012.9
20260503185016 67 0 0.0 0.0 0.00 0.00 0.00 77 1012.8
20260503184521 67 0 0.0 0.0 0.00 0.00 0.00 76 1012.8
20260503184017 67 0 0.0 0.0 0.00 0.00 0.00 76 1012.8
20260503183516 67 0 0.0 0.0 0.00 0.00 0.00 76 1012.8
20260503183017 67 0 0.0 0.0 0.00 0.00 0.00 76 1012.8
20260503182517 68 0 0.0 0.0 0.00 0.00 0.00 76 1012.9